Theta_e
338 338 339 340 342 344 343 341 341 344 346 347 348 350 349 349 350 349 350 350 348 349 349 349 349 350 347 350 348 347 346 343 339 346 346 351 349 349 350 357 355 354 352
341 341 340 341 342 342 343 344 342 342 345 347 347 347 347 347 348 349 347 349 347 347 348 347 347 347 348 349 348 347 348 347 343 340 344 349 348 348 347 351 351 351 351
340 342 342 341 342 342 343 344 346 345 344 344 347 345 345 345 343 346 349 348 348 349 348 348 348 349 347 347 348 347 348 348 344 342 344 345 348 347 346 348 351 352 351
341 342 342 342 343 343 344 344 345 347 344 343 345 349 348 347 347 348 348 349 349 350 351 351 350 350 350 350 346 348 347 346 346 343 344 345 346 347 347 346 344 347 346
341 342 342 344 345 345 345 345 346 346 346 346 346 347 348 347 349 349 350 350 349 349 350 351 352 351 347 347 351 350 348 346 344 343 342 343 344 343 344 347 344 346 345
342 342 343 343 344 344 345 345 346 347 346 345 344 345 345 347 338 337 344 348 349 349 349 350 350 347 347 340 339 340 347 347 344 343 344 340 344 344 345 345 343 340 340
342 343 343 343 342 344 346 346 344 345 343 345 344 342 341 341 333 335 338 344 347 348 347 347 346 348 347 350 342 337 337 336 340 349 343 344 344 346 346 344 342 342 344
342 343 344 344 344 345 345 343 343 345 341 342 342 342 342 342 331 332 334 345 345 345 345 346 346 347 347 346 347 346 347 349 347 344 345 347 348 351 346 350 348 346 344
342 342 344 347 346 345 345 343 343 344 342 344 344 344 344 345 329 328 333 343 342 344 346 347 347 347 335 327 343 343 344 345 339 331 333 333 333 333 341 345 341 339 337
342 343 346 346 347 346 344 343 341 340 342 345 344 344 338 345 331 328 329 343 342 342 345 346 332 337 322 322 339 340 338 341 340 341 343 342 337 341 332 344 347 341 340
345 346 345 346 344 346 343 343 343 342 343 342 340 341 341 337 338 319 320 339 341 341 342 343 343 325 318 318 319 335 334 332 333 334 336 337 339 343 345 341 341 342 340
344 345 345 344 345 345 344 344 343 342 339 337 338 337 336 337 324 321 315 318 328 340 340 341 339 322 317 314 317 320 317 320 329 330 330 331 335 339 341 339 337 337 333
344 345 345 344 346 346 344 341 340 339 337 335 334 334 335 336 335 319 318 320 322 336 336 325 316 311 309 315 313 314 316 323 325 326 328 329 336 341 339 336 335 332 327
343 343 344 344 344 344 343 341 338 336 334 334 333 333 335 333 332 332 331 331 324 329 323 324 319 316 315 319 320 324 326 327 325 325 327 335 336 333 333 332 330 330 328
341 343 344 343 342 338 336 334 336 336 331 335 336 336 333 332 330 320 321 326 321 310 312 320 322 322 322 322 323 323 325 325 325 328 326 330 331 329 328 329 328 327 325
340 340 339 339 338 337 331 326 306 307 303 302 303 321 324 310 302 300 299 300 301 302 316 316 318 318 319 320 321 322 324 324 327 330 330 333 333 326 325 324 323 323 321
339 337 335 334 336 335 335 334 334 316 302 300 300 301 302 307 299 297 298 299 300 304 316 315 313 317 320 322 321 323 326 326 325 326 324 327 327 324 323 322 321 319 316
338 323 337 336 336 335 336 336 335 334 331 326 307 307 299 297 297 297 299 302 313 309 314 318 318 321 323 323 325 325 324 325 323 322 321 321 321 320 319 318 318 316 314
335 335 336 336 334 330 329 327 327 326 325 324 317 308 299 296 296 296 297 313 317 319 320 322 322 324 324 322 322 322 322 321 320 320 320 319 319 318 317 317 316 310 311
333 328 328 329 326 325 324 323 321 321 321 322 322 321 311 306 311 312 310 314 316 317 320 323 323 322 321 321 321 320 319 318 317 317 317 317 317 317 316 316 315 313 314
329 325 324 324 325 324 323 322 322 322 322 322 323 320 308 318 320 321 321 321 320 319 320 320 321 321 321 320 319 318 317 317 316 315 315 316 315 315 317 317 316 315 314
331 326 323 321 321 322 323 324 322 322 321 323 323 315 300 319 322 322 321 322 323 323 323 323 322 320 321 320 318 318 316 315 315 315 314 315 315 316 317 316 315 314 314
332 329 324 321 323 318 320 322 322 322 321 323 323 322 317 321 322 322 322 324 324 325 323 322 321 320 319 318 319 319 318 316 316 316 315 315 315 316 316 315 315 314 313
330 329 327 324 323 321 320 319 321 313 321 322 322 322 321 321 321 323 324 325 325 325 322 321 321 320 320 320 320 320 320 320 319 319 318 317 314 313 316 314 314 314 313
329 329 327 324 323 322 319 319 320 321 322 323 323 323 323 322 322 324 324 324 325 325 323 322 322 321 321 319 319 319 306 299 314 306 319 319 317 315 314 313 312 314 316
328 330 328 325 324 320 319 320 322 321 322 324 324 324 324 324 325 325 326 325 325 325 325 324 323 323 322 322 321 305 290 292 308 297 318 319 318 318 318 317 316 316 315
Wind_Speed
12 10 10 10 8 6 6 5 5 4 5 5 4 4 5 6 6 5 5 4 5 4 3 3 5 3 3 3 3 3 3 3 3 3 2 2 3 5 5 4 4 5 4
13 11 11 9 8 8 7 6 5 6 4 5 3 4 4 6 5 5 6 5 6 6 5 4 6 4 5 4 3 5 4 4 3 4 2 2 5 3 4 5 4 4 5
12 11 10 10 9 9 9 7 6 6 5 5 4 5 4 4 4 5 5 5 5 6 6 6 7 5 6 5 6 6 5 4 5 4 3 2 2 2 3 4 3 5 5
8 9 10 11 10 9 8 7 7 5 4 4 5 5 5 5 6 6 6 6 6 6 7 7 7 7 7 7 6 6 5 5 4 5 4 4 3 1 3 4 4 4 5
14 12 12 9 8 7 7 7 7 6 6 6 5 5 3 3 4 6 5 6 7 7 7 7 8 9 10 9 5 6 6 5 4 5 5 3 3 3 5 2 5 3 4
11 10 9 8 9 10 9 8 7 8 7 6 5 4 3 1 5 8 8 7 7 7 7 7 7 8 9 12 11 11 8 6 7 4 4 7 8 4 3 4 3 3 4
6 7 9 10 9 9 7 5 7 8 5 7 4 3 5 5 5 11 10 7 5 6 6 6 6 6 6 6 7 8 10 12 13 6 7 7 6 6 4 4 6 5 5
10 5 8 9 9 8 9 7 6 3 4 4 7 12 9 6 7 12 12 5 4 6 6 6 7 6 5 5 5 6 7 7 8 6 10 10 8 6 8 4 4 4 2
11 12 8 10 9 8 7 7 5 3 2 5 5 6 7 6 9 11 7 5 5 7 5 5 5 5 4 1 3 6 7 8 5 9 11 11 11 11 7 4 6 4 4
13 15 12 12 10 10 8 11 6 4 4 4 4 4 6 5 6 6 6 3 5 5 4 5 6 5 2 1 3 4 6 7 7 8 7 6 6 7 9 10 6 7 5
12 12 13 13 12 9 8 4 5 6 5 4 3 2 3 2 2 4 2 4 4 3 4 4 3 4 2 2 2 3 3 6 6 6 6 6 5 6 4 5 7 7 6
10 11 11 10 8 8 10 6 7 6 5 4 4 2 1 1 2 5 6 8 1 3 3 2 2 2 2 2 3 5 6 6 4 5 6 6 6 5 1 1 1 2 2
9 9 7 6 6 8 9 8 6 5 5 4 3 3 3 2 1 3 5 3 4 0 2 3 3 4 4 4 6 7 5 3 4 5 6 7 5 4 2 1 1 3 3
8 8 8 8 7 6 4 5 6 5 5 4 4 3 2 2 3 2 2 2 3 2 3 3 3 6 7 7 5 5 4 5 6 6 7 6 3 2 2 1 1 1 1
7 7 8 7 7 6 4 3 4 3 3 4 4 3 4 4 3 4 4 2 1 3 3 2 3 3 4 5 5 5 5 5 6 6 7 7 6 3 2 1 1 1 3
6 5 5 6 6 6 6 4 8 7 5 4 2 3 2 5 8 10 10 9 7 2 0 3 5 5 5 5 5 6 6 7 6 6 6 5 3 2 2 2 2 3 3
9 7 5 6 6 6 5 4 4 3 7 6 5 5 4 6 10 9 9 8 5 4 1 2 4 5 6 6 4 4 4 2 3 2 2 1 2 3 3 3 3 2 2
7 10 8 6 5 4 4 3 3 3 2 1 5 4 6 6 9 8 8 6 1 2 2 3 4 4 5 5 4 3 3 3 2 2 2 3 3 3 3 3 3 3 3
6 5 5 5 5 5 4 3 4 5 4 2 2 3 6 7 6 5 3 2 2 4 4 4 3 4 4 3 3 4 3 3 3 3 2 3 3 2 2 2 3 5 5
5 6 5 5 5 5 5 4 4 4 4 3 2 2 4 3 3 4 5 4 4 5 5 5 4 3 3 4 4 3 3 2 2 2 2 2 1 2 2 3 4 5 4
7 7 7 4 5 5 5 4 3 4 4 3 2 4 10 5 5 4 3 4 4 4 4 3 3 3 3 3 3 3 3 2 2 1 1 1 1 1 1 3 4 4 5
8 8 6 5 4 5 4 5 4 4 4 4 2 2 7 4 3 3 4 3 3 3 2 1 2 3 2 2 2 2 2 2 1 1 0 0 1 1 2 4 5 5 5
10 10 7 6 5 7 5 4 4 5 5 3 3 2 4 4 4 3 3 2 2 1 1 0 1 1 1 1 1 2 3 2 1 1 1 1 2 2 3 5 6 6 5
5 5 7 5 5 5 5 6 5 5 5 5 5 4 4 4 4 5 4 3 3 2 2 2 2 1 1 1 1 2 2 0 2 3 3 3 3 3 4 5 5 5 4
5 4 3 5 5 5 5 5 5 5 4 4 4 3 3 4 4 4 4 3 3 3 3 2 2 1 1 1 1 1 3 4 4 4 4 5 5 5 3 3 3 3 4
5 6 5 5 5 4 4 4 4 5 5 4 3 3 3 4 4 3 3 4 3 3 3 3 3 3 2 3 4 4 5 3 3 3 4 5 5 4 3 3 4 3 4
Wind_Direction
187 183 181 190 195 186 185 201 215 207 201 215 220 226 215 210 203 190 203 200 207 225 219 232 257 243 255 270 241 208 222 191 237 292 255 305 267 246 249 243 231 235 222
185 185 183 187 185 192 197 197 208 217 205 211 220 238 242 204 180 211 214 205 206 214 232 222 238 233 246 254 247 254 245 202 215 259 281 268 232 250 255 257 236 223 222
179 185 188 186 187 198 206 196 194 203 215 214 206 222 218 234 207 232 240 232 223 231 223 223 239 215 230 227 224 235 235 233 215 221 248 236 272 252 265 265 259 236 231
164 187 194 190 192 199 198 187 197 208 213 225 230 219 214 209 225 216 214 229 230 232 229 233 240 235 235 233 223 232 238 245 223 236 250 252 245 239 251 259 262 244 249
175 182 197 194 189 181 188 190 191 194 209 217 224 233 263 271 251 229 227 228 229 236 241 243 247 239 231 228 220 231 216 228 234 238 246 242 234 210 216 208 239 252 249
161 187 180 178 186 191 192 189 187 206 203 190 176 181 195 212 283 287 264 223 224 229 239 244 246 250 249 242 234 230 215 217 234 219 232 239 243 225 217 227 234 240 263
144 171 187 177 190 191 166 175 208 209 188 170 166 319 299 259 279 307 286 249 225 229 236 248 261 257 246 262 262 240 239 228 233 237 243 236 250 222 218 229 218 212 228
157 179 216 184 193 181 165 175 211 157 186 194 188 210 221 232 226 242 250 240 238 251 252 251 253 266 263 263 274 277 271 260 247 230 238 253 248 246 215 231 250 236 244
170 189 185 210 193 170 186 165 148 144 205 199 211 210 211 228 217 228 193 212 237 253 252 251 251 263 275 343 268 282 292 286 271 239 242 254 259 259 222 210 232 210 243
173 167 214 208 186 185 169 171 186 166 199 197 185 192 194 218 216 214 195 212 234 245 249 244 221 233 146 61 306 308 297 300 326 323 315 305 279 274 235 230 230 226 230
163 176 192 190 183 180 165 176 154 169 163 160 171 165 198 226 267 2 230 230 229 258 251 255 234 225 264 322 322 285 273 326 314 312 304 300 299 289 277 224 236 236 238
158 163 176 175 166 153 153 154 158 141 137 157 162 188 222 178 28 358 321 235 258 250 276 296 279 265 258 255 267 277 305 314 296 292 293 287 284 285 281 319 306 296 32
161 159 159 146 139 148 143 145 140 142 146 157 176 201 226 200 183 67 57 91 78 147 8 33 25 348 325 299 259 275 284 283 281 277 274 269 262 267 250 220 168 114 108
152 140 142 147 143 136 123 140 142 155 165 171 181 210 230 227 214 182 136 113 81 61 11 338 311 283 263 265 299 272 261 252 256 257 263 262 253 217 206 211 240 205 257
137 147 148 143 140 133 116 149 169 164 162 172 193 195 196 226 213 164 161 147 81 68 318 305 303 302 301 300 297 288 276 261 247 246 257 256 231 180 195 207 251 245 242
132 141 155 141 148 152 151 139 52 54 32 27 271 220 155 85 130 128 122 115 109 94 6 316 305 299 288 291 290 292 288 277 261 242 239 230 219 216 207 213 214 230 229
155 148 153 158 157 160 162 157 158 80 76 59 59 91 78 161 152 142 129 113 130 163 336 284 283 291 293 285 266 261 277 331 335 305 291 289 270 266 253 245 220 202 193
147 157 157 164 159 160 152 174 169 170 183 217 60 54 58 122 127 132 127 132 204 230 253 275 274 273 284 277 287 305 314 312 294 295 292 276 256 235 228 224 207 188 155
141 170 162 158 151 160 149 159 152 141 156 152 140 84 85 92 101 110 139 253 271 279 274 267 250 273 287 294 293 292 288 294 299 294 276 264 253 232 229 218 177 156 139
146 162 153 158 157 150 136 162 169 160 143 160 186 168 137 134 200 209 216 225 243 258 270 283 288 276 276 285 284 282 284 285 285 285 284 276 261 236 217 177 151 148 139
151 143 156 155 156 153 148 190 185 144 134 151 161 177 181 185 205 216 234 240 254 259 260 267 281 283 279 284 287 286 280 288 284 283 285 273 239 222 192 138 132 117 117
151 132 145 155 146 150 162 165 170 137 137 140 147 109 162 216 209 238 254 263 265 242 261 293 298 299 302 303 297 278 269 271 277 280 259 216 192 146 114 110 111 108 114
138 140 155 154 155 140 148 151 160 151 152 150 154 177 187 213 221 245 262 262 245 216 150 157 18 327 320 324 313 305 295 285 242 166 133 100 78 76 105 109 115 109 104
93 120 144 145 143 151 163 160 165 166 158 160 175 196 203 215 229 236 238 206 218 181 162 138 118 78 354 314 328 328 314 228 137 137 129 117 100 95 101 106 112 107 104
131 133 143 147 152 174 160 163 161 170 173 180 175 190 208 209 229 229 216 209 223 183 188 169 185 166 202 170 222 145 107 147 122 108 114 118 122 113 101 101 110 150 168
160 144 148 166 153 164 170 167 169 170 189 188 185 212 215 215 228 230 227 211 226 209 189 192 207 220 223 229 227 159 160 171 142 113 129 130 138 154 172 176 171 172 168